FDX2367 KOAK-KLAX

Flight info

Callsign FDX2367
Flight time 0h 59m
Altitude 33000
Route CNDEL5 SUSEY EBAYE BURGL IRNMN2
Aircraft MD1F/H-SDE1E2E3FGHIJ2J3J4J5M1RWXY/LB1D1

Departure

Time 2026-05-05 00:30
Airport San Francisco Bay Oakland International Airport (KOAK)

Arrival

Time 2026-05-05 01:29
Airport Los Angeles International Airport (KLAX)
Time Latitude Longitude Altitude Speed Heading
2026-05-04 23:49 37.71874 -122.21637 17 ft 0 kts 312°
2026-05-05 00:16 37.71870 -122.21632 16 ft 2 kts 312°
2026-05-05 00:16 37.71860 -122.21618 16 ft 1 kts 312°
2026-05-05 00:16 37.71854 -122.21609 16 ft 2 kts 303°
2026-05-05 00:16 37.71849 -122.21591 16 ft 2 kts 270°
2026-05-05 00:17 37.71852 -122.21573 16 ft 2 kts 242°
2026-05-05 00:17 37.71861 -122.21559 16 ft 2 kts 215°
2026-05-05 00:17 37.71875 -122.21551 16 ft 2 kts 187°
2026-05-05 00:17 37.71881 -122.21551 16 ft 1 kts 181°
2026-05-05 00:18 37.71882 -122.21551 16 ft 0 kts 181°
2026-05-05 00:20 37.71879 -122.21551 16 ft 1 kts 181°
2026-05-05 00:21 37.71840 -122.21552 16 ft 7 kts 181°
2026-05-05 00:21 37.71783 -122.21565 16 ft 8 kts 206°
2026-05-05 00:21 37.71733 -122.21620 16 ft 10 kts 228°
2026-05-05 00:21 37.71684 -122.21691 17 ft 11 kts 228°
2026-05-05 00:22 37.71626 -122.21770 16 ft 12 kts 229°
2026-05-05 00:22 37.71564 -122.21860 16 ft 14 kts 229°
2026-05-05 00:22 37.71498 -122.21954 16 ft 13 kts 229°
2026-05-05 00:22 37.71435 -122.22043 16 ft 13 kts 229°
2026-05-05 00:23 37.71375 -122.22129 16 ft 12 kts 229°
2026-05-05 00:23 37.71317 -122.22210 16 ft 12 kts 227°
2026-05-05 00:23 37.71256 -122.22280 16 ft 11 kts 218°
2026-05-05 00:23 37.71195 -122.22342 16 ft 10 kts 220°
2026-05-05 00:24 37.71139 -122.22400 16 ft 9 kts 219°
2026-05-05 00:24 37.71081 -122.22427 16 ft 8 kts 165°
2026-05-05 00:24 37.71034 -122.22379 16 ft 8 kts 131°
2026-05-05 00:24 37.70993 -122.22317 16 ft 10 kts 130°
2026-05-05 00:25 37.70948 -122.22248 16 ft 10 kts 130°
2026-05-05 00:25 37.70895 -122.22169 16 ft 12 kts 130°
2026-05-05 00:25 37.70839 -122.22086 16 ft 13 kts 130°
2026-05-05 00:25 37.70778 -122.21994 16 ft 13 kts 130°
2026-05-05 00:26 37.70718 -122.21905 16 ft 13 kts 130°
2026-05-05 00:26 37.70658 -122.21814 16 ft 13 kts 130°
2026-05-05 00:26 37.70599 -122.21726 16 ft 12 kts 130°
2026-05-05 00:26 37.70544 -122.21645 16 ft 11 kts 130°
2026-05-05 00:27 37.70492 -122.21566 16 ft 11 kts 130°
2026-05-05 00:27 37.70443 -122.21492 16 ft 11 kts 130°
2026-05-05 00:27 37.70390 -122.21420 16 ft 11 kts 143°
2026-05-05 00:27 37.70318 -122.21381 14 ft 9 kts 160°
2026-05-05 00:28 37.70281 -122.21365 15 ft 0 kts 162°
2026-05-05 00:29 37.70268 -122.21361 15 ft 5 kts 172°
2026-05-05 00:29 37.70213 -122.21383 16 ft 11 kts 214°
2026-05-05 00:29 37.70174 -122.21457 16 ft 10 kts 288°
2026-05-05 00:29 37.70257 -122.21589 17 ft 47 kts 310°
2026-05-05 00:30 37.70649 -122.22178 17 ft 124 kts 310°
2026-05-05 00:30 37.71339 -122.23217 29 ft 180 kts 307°
2026-05-05 00:30 37.72188 -122.24488 510 ft 191 kts 310°
2026-05-05 00:30 37.73027 -122.25690 1394 ft 182 kts 310°
2026-05-05 00:31 37.73850 -122.26859 2077 ft 181 kts 311°
2026-05-05 00:31 37.74703 -122.28072 2481 ft 186 kts 310°
2026-05-05 00:31 37.75543 -122.29330 2716 ft 190 kts 307°
2026-05-05 00:31 37.76337 -122.30668 2822 ft 187 kts 303°
2026-05-05 00:32 37.76987 -122.32056 2891 ft 185 kts 287°
2026-05-05 00:32 37.76942 -122.33617 3086 ft 181 kts 240°
2026-05-05 00:32 37.75989 -122.34658 3368 ft 190 kts 196°
2026-05-05 00:32 37.74683 -122.34598 3683 ft 196 kts 154°
2026-05-05 00:33 37.73666 -122.33452 4033 ft 200 kts 119°
2026-05-05 00:33 37.73064 -122.31842 4321 ft 211 kts 109°
2026-05-05 00:33 37.72573 -122.30061 4718 ft 218 kts 107°
2026-05-05 00:33 37.72058 -122.28203 5005 ft 237 kts 112°
2026-05-05 00:34 37.71193 -122.26319 5218 ft 257 kts 127°
2026-05-05 00:34 37.69961 -122.24642 5608 ft 268 kts 136°
2026-05-05 00:34 37.68506 -122.23126 6115 ft 274 kts 141°
2026-05-05 00:34 37.66952 -122.21687 6700 ft 276 kts 143°
2026-05-05 00:35 37.65391 -122.20284 7278 ft 278 kts 143°
2026-05-05 00:35 37.63831 -122.18872 7816 ft 280 kts 142°
2026-05-05 00:35 37.62255 -122.17413 8329 ft 282 kts 142°
2026-05-05 00:35 37.60680 -122.15925 8825 ft 284 kts 141°
2026-05-05 00:36 37.59105 -122.14428 9308 ft 286 kts 141°
2026-05-05 00:36 37.57491 -122.12899 9885 ft 292 kts 141°
2026-05-05 00:36 37.55846 -122.11334 10351 ft 309 kts 141°
2026-05-05 00:36 37.54092 -122.09636 10727 ft 323 kts 141°
2026-05-05 00:37 37.52344 -122.07940 11725 ft 320 kts 141°
2026-05-05 00:37 37.50573 -122.06265 12473 ft 322 kts 141°
2026-05-05 00:37 37.48768 -122.04591 13181 ft 328 kts 141°
2026-05-05 00:37 37.46851 -122.02817 13389 ft 351 kts 141°
2026-05-05 00:38 37.44869 -122.00961 13916 ft 361 kts 141°
2026-05-05 00:38 37.42851 -121.99065 14512 ft 369 kts 140°
2026-05-05 00:38 37.40738 -121.97075 14793 ft 388 kts 140°
2026-05-05 00:38 37.38540 -121.94991 14930 ft 409 kts 140°
2026-05-05 00:39 37.36234 -121.92801 15447 ft 418 kts 140°
2026-05-05 00:39 37.33889 -121.90585 16087 ft 425 kts 140°
2026-05-05 00:39 37.31527 -121.88356 16806 ft 429 kts 140°
2026-05-05 00:39 37.29131 -121.86096 17501 ft 433 kts 140°
2026-05-05 00:40 37.26739 -121.83837 18206 ft 436 kts 139°
2026-05-05 00:40 37.24286 -121.81521 18905 ft 440 kts 139°
2026-05-05 00:40 37.21850 -121.79220 19557 ft 444 kts 139°
2026-05-05 00:40 37.19373 -121.76879 20209 ft 447 kts 138°
2026-05-05 00:41 37.16893 -121.74534 20849 ft 451 kts 138°
2026-05-05 00:41 37.14385 -121.72156 21469 ft 454 kts 137°
2026-05-05 00:41 37.11862 -121.69769 22090 ft 458 kts 137°
2026-05-05 00:41 37.09325 -121.67370 22712 ft 461 kts 137°
2026-05-05 00:42 37.06772 -121.64983 23277 ft 464 kts 137°
2026-05-05 00:42 37.04167 -121.62579 23861 ft 467 kts 137°
2026-05-05 00:42 37.01545 -121.60154 24366 ft 471 kts 137°
2026-05-05 00:42 36.98887 -121.57707 24920 ft 474 kts 137°
2026-05-05 00:43 36.96214 -121.55259 25409 ft 479 kts 138°
2026-05-05 00:43 36.93548 -121.52810 25962 ft 481 kts 137°
2026-05-05 00:43 36.90849 -121.50323 26503 ft 483 kts 138°
2026-05-05 00:43 36.88128 -121.47811 27189 ft 483 kts 138°
2026-05-05 00:44 36.85461 -121.45347 27841 ft 482 kts 138°
2026-05-05 00:44 36.82750 -121.42842 28474 ft 482 kts 138°
2026-05-05 00:44 36.80084 -121.40379 29098 ft 481 kts 139°
2026-05-05 00:44 36.77385 -121.37887 29751 ft 480 kts 138°
2026-05-05 00:45 36.74683 -121.35390 30303 ft 478 kts 139°
2026-05-05 00:45 36.72015 -121.32911 30826 ft 477 kts 140°
2026-05-05 00:45 36.69347 -121.30443 31340 ft 476 kts 141°
2026-05-05 00:45 36.66687 -121.27979 31799 ft 474 kts 141°
2026-05-05 00:46 36.64059 -121.25543 32263 ft 472 kts 142°
2026-05-05 00:46 36.61421 -121.23098 32697 ft 471 kts 143°
2026-05-05 00:46 36.58765 -121.20648 32836 ft 473 kts 143°
2026-05-05 00:47 36.53502 -121.15787 32851 ft 467 kts 143°
2026-05-05 00:47 36.48320 -121.10988 32864 ft 466 kts 143°
2026-05-05 00:48 36.43108 -121.06059 32873 ft 470 kts 140°
2026-05-05 00:48 36.38472 -121.00321 32853 ft 473 kts 135°
2026-05-05 00:49 36.33891 -120.94447 32858 ft 472 kts 137°
2026-05-05 00:49 36.29268 -120.88716 32862 ft 473 kts 138°
2026-05-05 00:50 36.24572 -120.82909 32865 ft 478 kts 138°
2026-05-05 00:50 36.19847 -120.77033 32864 ft 482 kts 138°
2026-05-05 00:51 36.15142 -120.71165 32859 ft 481 kts 138°
2026-05-05 00:51 36.10402 -120.65237 32861 ft 485 kts 138°
2026-05-05 00:52 36.05573 -120.59216 32855 ft 494 kts 139°
2026-05-05 00:52 36.00740 -120.53180 32853 ft 496 kts 138°
2026-05-05 00:53 35.95874 -120.47089 32865 ft 496 kts 139°
2026-05-05 00:53 35.91032 -120.41022 32873 ft 496 kts 139°
2026-05-05 00:54 35.86185 -120.34947 32878 ft 495 kts 140°
2026-05-05 00:54 35.81335 -120.28883 32882 ft 494 kts 140°
2026-05-05 00:55 35.76466 -120.22887 32878 ft 494 kts 141°
2026-05-05 00:55 35.71578 -120.16882 32887 ft 495 kts 141°
2026-05-05 00:56 35.66661 -120.10998 32868 ft 488 kts 146°
2026-05-05 00:56 35.61110 -120.06302 32889 ft 479 kts 155°
2026-05-05 00:57 35.55361 -120.02166 32925 ft 478 kts 156°
2026-05-05 00:57 35.49661 -119.97980 32935 ft 477 kts 155°
2026-05-05 00:58 35.43977 -119.93726 32947 ft 477 kts 155°
2026-05-05 00:58 35.38338 -119.89490 32949 ft 476 kts 155°
2026-05-05 00:59 35.32647 -119.85216 32954 ft 475 kts 155°
2026-05-05 00:59 35.27081 -119.80801 32756 ft 477 kts 150°
2026-05-05 00:59 35.24413 -119.78276 32049 ft 479 kts 149°
2026-05-05 01:00 35.21813 -119.75741 31536 ft 473 kts 149°
2026-05-05 01:00 35.19261 -119.73312 31033 ft 468 kts 150°
2026-05-05 01:00 35.16679 -119.70912 30502 ft 463 kts 151°
2026-05-05 01:00 35.14096 -119.68532 30031 ft 457 kts 152°
2026-05-05 01:01 35.11592 -119.66225 29462 ft 455 kts 152°
2026-05-05 01:01 35.09066 -119.63900 28875 ft 452 kts 151°
2026-05-05 01:01 35.06562 -119.61576 28356 ft 448 kts 151°
2026-05-05 01:01 35.04098 -119.59280 27755 ft 447 kts 150°
2026-05-05 01:02 35.01672 -119.57021 27257 ft 442 kts 149°
2026-05-05 01:02 34.99212 -119.54732 26612 ft 442 kts 149°
2026-05-05 01:02 34.96777 -119.52460 26096 ft 438 kts 149°
2026-05-05 01:02 34.94385 -119.50222 26001 ft 437 kts 148°
2026-05-05 01:03 34.91954 -119.47952 26037 ft 438 kts 149°
2026-05-05 01:03 34.89534 -119.45712 26006 ft 438 kts 149°
2026-05-05 01:03 34.87102 -119.43520 26011 ft 439 kts 150°
2026-05-05 01:03 34.84638 -119.41332 26004 ft 440 kts 150°
2026-05-05 01:04 34.82142 -119.39127 25997 ft 440 kts 150°
2026-05-05 01:04 34.77241 -119.34776 25334 ft 435 kts 150°
2026-05-05 01:04 34.74830 -119.32636 24819 ft 432 kts 150°
2026-05-05 01:05 34.72394 -119.30478 24244 ft 429 kts 149°
2026-05-05 01:05 34.69978 -119.28365 23651 ft 428 kts 150°
2026-05-05 01:05 34.67572 -119.26277 23094 ft 425 kts 149°
2026-05-05 01:05 34.65179 -119.24200 22526 ft 421 kts 149°
2026-05-05 01:06 34.62822 -119.22145 21981 ft 418 kts 149°
2026-05-05 01:06 34.60466 -119.20108 21445 ft 414 kts 149°
2026-05-05 01:06 34.58132 -119.18107 20885 ft 411 kts 149°
2026-05-05 01:06 34.55793 -119.16109 20324 ft 408 kts 148°
2026-05-05 01:07 34.53509 -119.14082 19809 ft 404 kts 147°
2026-05-05 01:07 34.51255 -119.12055 19230 ft 403 kts 147°
2026-05-05 01:07 34.49039 -119.10090 18690 ft 399 kts 147°
2026-05-05 01:07 34.46782 -119.08107 18154 ft 395 kts 147°
2026-05-05 01:08 34.44578 -119.06178 17628 ft 392 kts 147°
2026-05-05 01:08 34.42393 -119.04261 17102 ft 389 kts 147°
2026-05-05 01:08 34.40182 -119.02341 16592 ft 386 kts 147°
2026-05-05 01:08 34.38027 -119.00482 16096 ft 383 kts 147°
2026-05-05 01:09 34.35854 -118.98620 15557 ft 381 kts 147°
2026-05-05 01:09 34.33700 -118.96766 15037 ft 380 kts 147°
2026-05-05 01:09 34.31578 -118.94851 14523 ft 378 kts 145°
2026-05-05 01:09 34.29518 -118.92945 14033 ft 376 kts 145°
2026-05-05 01:10 34.27414 -118.91026 13521 ft 374 kts 146°
2026-05-05 01:10 34.25337 -118.89162 13065 ft 371 kts 145°
2026-05-05 01:10 34.23306 -118.87304 12602 ft 369 kts 144°
2026-05-05 01:10 34.21268 -118.85411 12141 ft 366 kts 144°
2026-05-05 01:11 34.19244 -118.83553 11942 ft 364 kts 144°
2026-05-05 01:11 34.17230 -118.81722 11943 ft 365 kts 144°
2026-05-05 01:11 34.15261 -118.79771 11939 ft 365 kts 140°
2026-05-05 01:11 34.13386 -118.77718 11801 ft 362 kts 139°
2026-05-05 01:12 34.11583 -118.75699 11579 ft 352 kts 139°
2026-05-05 01:12 34.09803 -118.73740 11441 ft 339 kts 140°
2026-05-05 01:12 34.08082 -118.71877 11320 ft 326 kts 140°
2026-05-05 01:12 34.06433 -118.70093 11191 ft 314 kts 140°
2026-05-05 01:13 34.04852 -118.68314 10879 ft 307 kts 134°
2026-05-05 01:13 34.03553 -118.66299 10466 ft 304 kts 121°
2026-05-05 01:13 34.02661 -118.63979 9957 ft 303 kts 106°
2026-05-05 01:13 34.02233 -118.61549 9476 ft 301 kts 96°
2026-05-05 01:14 34.02072 -118.59038 8960 ft 300 kts 92°
2026-05-05 01:14 34.01979 -118.56520 8438 ft 299 kts 92°
2026-05-05 01:14 34.01845 -118.54044 7968 ft 297 kts 95°
2026-05-05 01:14 34.01643 -118.51575 7519 ft 294 kts 96°
2026-05-05 01:15 34.01402 -118.49150 7070 ft 291 kts 97°
2026-05-05 01:15 34.01175 -118.46744 6620 ft 288 kts 92°
2026-05-05 01:15 34.01205 -118.44337 6174 ft 286 kts 82°
2026-05-05 01:15 34.01524 -118.41966 5707 ft 284 kts 76°
2026-05-05 01:16 34.01984 -118.39640 5255 ft 282 kts 75°
2026-05-05 01:16 34.02464 -118.37369 5212 ft 279 kts 76°
2026-05-05 01:16 34.02870 -118.35030 5217 ft 285 kts 80°
2026-05-05 01:16 34.03154 -118.32661 5192 ft 284 kts 83°
2026-05-05 01:17 34.03363 -118.30306 5184 ft 283 kts 84°
2026-05-05 01:17 34.03560 -118.27958 5133 ft 280 kts 84°
2026-05-05 01:17 34.03770 -118.25589 4571 ft 284 kts 84°
2026-05-05 01:17 34.04002 -118.23239 4122 ft 282 kts 82°
2026-05-05 01:18 34.04256 -118.20942 3986 ft 267 kts 82°
2026-05-05 01:18 34.04508 -118.18778 3972 ft 252 kts 82°
2026-05-05 01:18 34.04749 -118.16712 4007 ft 245 kts 82°
2026-05-05 01:18 34.04985 -118.14645 4011 ft 248 kts 82°
2026-05-05 01:19 34.05215 -118.12562 3953 ft 248 kts 82°
2026-05-05 01:19 34.05441 -118.10505 3952 ft 248 kts 82°
2026-05-05 01:19 34.05664 -118.08459 3951 ft 248 kts 82°
2026-05-05 01:19 34.05889 -118.06406 3955 ft 247 kts 82°
2026-05-05 01:20 34.06114 -118.04349 3951 ft 247 kts 82°
2026-05-05 01:20 34.06339 -118.02293 3957 ft 247 kts 82°
2026-05-05 01:20 34.06541 -118.00229 3935 ft 249 kts 89°
2026-05-05 01:20 34.06160 -117.98228 4007 ft 242 kts 120°
2026-05-05 01:21 34.05046 -117.96725 4019 ft 239 kts 149°
2026-05-05 01:21 34.03502 -117.96080 4005 ft 232 kts 180°
2026-05-05 01:21 34.01934 -117.96439 4013 ft 227 kts 207°
2026-05-05 01:21 34.00605 -117.97451 3844 ft 224 kts 220°
2026-05-05 01:22 33.99436 -117.98715 3236 ft 225 kts 226°
2026-05-05 01:22 33.98407 -118.00048 3106 ft 203 kts 229°
2026-05-05 01:22 33.97509 -118.01321 3140 ft 198 kts 231°
2026-05-05 01:22 33.96915 -118.02781 3008 ft 189 kts 260°
2026-05-05 01:23 33.96830 -118.04294 3067 ft 180 kts 268°
2026-05-05 01:23 33.96844 -118.05825 3023 ft 180 kts 269°
2026-05-05 01:23 33.96833 -118.07343 3013 ft 180 kts 265°
2026-05-05 01:23 33.96755 -118.08856 3002 ft 179 kts 263°
2026-05-05 01:24 33.96628 -118.10323 2848 ft 177 kts 261°
2026-05-05 01:24 33.96469 -118.11767 2955 ft 173 kts 261°
2026-05-05 01:24 33.96315 -118.13187 2950 ft 169 kts 261°
2026-05-05 01:24 33.96166 -118.14589 2981 ft 170 kts 261°
2026-05-05 01:25 33.96019 -118.16022 2970 ft 171 kts 262°
2026-05-05 01:25 33.95873 -118.17440 2988 ft 171 kts 262°
2026-05-05 01:25 33.95729 -118.18869 2964 ft 170 kts 262°
2026-05-05 01:25 33.95586 -118.20279 2963 ft 168 kts 261°
2026-05-05 01:26 33.95441 -118.21707 2758 ft 170 kts 261°
2026-05-05 01:26 33.95293 -118.23127 2511 ft 168 kts 261°
2026-05-05 01:26 33.95152 -118.24509 2316 ft 168 kts 261°
2026-05-05 01:26 33.95009 -118.25918 2102 ft 168 kts 261°
2026-05-05 01:27 33.94864 -118.27310 1879 ft 167 kts 261°
2026-05-05 01:27 33.94720 -118.28695 1660 ft 167 kts 261°
2026-05-05 01:27 33.94584 -118.30090 1446 ft 164 kts 261°
2026-05-05 01:27 33.94447 -118.31467 1226 ft 165 kts 261°
2026-05-05 01:28 33.94304 -118.32845 1016 ft 166 kts 261°
2026-05-05 01:28 33.94157 -118.34232 810 ft 165 kts 261°
2026-05-05 01:28 33.93997 -118.35604 566 ft 164 kts 261°
2026-05-05 01:28 33.93860 -118.36987 354 ft 164 kts 262°
2026-05-05 01:29 33.93708 -118.38357 131 ft 163 kts 264°
2026-05-05 01:29 33.93614 -118.39485 115 ft 101 kts 262°
2026-05-05 01:29 33.93546 -118.40102 123 ft 58 kts 263°
2026-05-05 01:29 33.93502 -118.40555 128 ft 43 kts 264°
2026-05-05 01:30 33.93448 -118.40710 128 ft 13 kts 184°
2026-05-05 01:30 33.93378 -118.40668 128 ft 12 kts 100°
2026-05-05 01:30 33.93383 -118.40584 126 ft 12 kts 90°
2026-05-05 01:30 33.93391 -118.40457 125 ft 16 kts 82°
2026-05-05 01:31 33.93407 -118.40315 124 ft 17 kts 83°
2026-05-05 01:31 33.93422 -118.40165 124 ft 18 kts 83°
2026-05-05 01:31 33.93438 -118.40008 121 ft 19 kts 83°
2026-05-05 01:31 33.93455 -118.39839 119 ft 21 kts 83°
2026-05-05 01:32 33.93472 -118.39666 115 ft 16 kts 83°
2026-05-05 01:32 33.93488 -118.39528 115 ft 16 kts 83°
2026-05-05 01:32 33.93501 -118.39379 112 ft 18 kts 84°
2026-05-05 01:32 33.93517 -118.39219 111 ft 19 kts 82°
2026-05-05 01:33 33.93533 -118.39062 111 ft 18 kts 84°
2026-05-05 01:33 33.93550 -118.38897 108 ft 20 kts 82°
2026-05-05 01:33 33.93510 -118.38800 108 ft 13 kts 164°
2026-05-05 01:33 33.93439 -118.38784 108 ft 6 kts 172°
2026-05-05 01:34 33.93412 -118.38779 108 ft 1 kts 172°
2026-05-05 01:34 33.93410 -118.38779 108 ft 0 kts 172°